• In Moldova, Republic
  • List of Countries
  • For 7 days
  • Water Temperature
  • Satellite Maps
  • Weather Map
  • Weather Widgets
  • user-avatar
    Login

    Hourly Weather Berat

    Today, 25 March, Saturday

    Time Temperature Precipitation Wind Pressure Humidity
    00:00 +13°C° 0 mm 0 mps 748 mmHg 77%
    01:00 +13°C° 0 mm 0 mps 748 mmHg 78%
    02:00 +12°C° 0 mm 0 mps 748 mmHg 80%
    03:00 +12°C° 0 mm 0 mps 748 mmHg 82%
    04:00 +12°C° 0 mm 0 mps 748 mmHg 84%
    05:00 +13°C° 0 mm 0 mps 748 mmHg 79%
    06:00 +14°C° 0 mm 0 mps 748 mmHg 75%
    07:00 +16°C° 0 mm 0 mps 748 mmHg 70%
    08:00 +18°C° 0 mm 0 mps 748 mmHg 62%
    09:00 +22°C° 0 mm 1 mps 748 mmHg 54%
    10:00 +24°C° 0 mm 1 mps 748 mmHg 46%
    11:00 +24°C° 0.1 mm 2 mps 748 mmHg 46%
    12:00 +24°C° 0.1 mm 2 mps 748 mmHg 46%
    13:00 +24°C° 0.1 mm 3 mps 747 mmHg 46%
    14:00 +24°C° 0.2 mm 3 mps 747 mmHg 50%
    15:00 +22°C° 0.2 mm 3 mps 747 mmHg 53%
    16:00 +21°C° 0.2 mm 3 mps 746 mmHg 57%
    17:00 +19°C° 0.1 mm 2 mps 746 mmHg 67%
    18:00 +17°C° 0.1 mm 2 mps 746 mmHg 77%
    19:00 +14°C° 0.1 mm 1 mps 746 mmHg 87%
    20:00 +14°C° 0 mm 1 mps 746 mmHg 88%
    21:00 +13°C° 0 mm 1 mps 746 mmHg 89%
    22:00 +12°C° 0 mm 0 mps 747 mmHg 91%
    23:00 +11°C° 0 mm 0 mps 746 mmHg 90%

    Tomorrow, 26 March, Sunday

    Time Temperature Precipitation Wind Pressure Humidity
    00:00 +11°C° 0 mm 0 mps 746 mmHg 90%
    01:00 +11°C° 0 mm 0 mps 746 mmHg 90%
    02:00 +10°C° 0 mm 0 mps 746 mmHg 90%
    03:00 +10°C° 0 mm 0 mps 745 mmHg 89%
    04:00 +9°C° 0 mm 0 mps 745 mmHg 89%
    05:00 +11°C° 0 mm 0 mps 745 mmHg 84%
    06:00 +13°C° 0 mm 1 mps 745 mmHg 79%
    07:00 +15°C° 0 mm 1 mps 745 mmHg 74%
    08:00 +16°C° 0 mm 1 mps 745 mmHg 67%
    09:00 +19°C° 0 mm 1 mps 745 mmHg 59%
    10:00 +19°C° 0 mm 2 mps 744 mmHg 52%
    11:00 +20°C° 0.1 mm 2 mps 744 mmHg 52%
    12:00 +20°C° 0.1 mm 3 mps 743 mmHg 52%
    13:00 +20°C° 0.1 mm 4 mps 743 mmHg 53%
    14:00 +20°C° 0.3 mm 4 mps 742 mmHg 56%
    15:00 +19°C° 0.3 mm 3 mps 742 mmHg 60%
    16:00 +18°C° 0.3 mm 3 mps 741 mmHg 64%
    17:00 +16°C° 0.1 mm 3 mps 742 mmHg 72%
    18:00 +14°C° 0.1 mm 2 mps 742 mmHg 80%
    19:00 +13°C° 0.1 mm 2 mps 742 mmHg 88%
    20:00 +12°C° 0.3 mm 1 mps 743 mmHg 89%
    21:00 +12°C° 0.3 mm 1 mps 743 mmHg 90%
    22:00 +12°C° 0.3 mm 1 mps 743 mmHg 90%
    23:00 +12°C° 0.2 mm 1 mps 743 mmHg 91%

    Day after tomorrow, 27 March, Monday

    Time Temperature Precipitation Wind Pressure Humidity
    00:00 +10°C° 0.2 mm 2 mps 743 mmHg 91%
    01:00 +10°C° 0.2 mm 2 mps 743 mmHg 92%
    02:00 +10°C° 0.3 mm 2 mps 743 mmHg 91%
    03:00 +9°C° 0.3 mm 2 mps 743 mmHg 91%
    04:00 +9°C° 0.3 mm 2 mps 743 mmHg 90%
    05:00 +9°C° 0.4 mm 2 mps 744 mmHg 87%
    06:00 +9°C° 0.4 mm 3 mps 744 mmHg 84%
    07:00 +10°C° 0.4 mm 3 mps 744 mmHg 80%
    08:00 +11°C° 0.3 mm 3 mps 745 mmHg 74%
    09:00 +12°C° 0.3 mm 3 mps 745 mmHg 69%
    10:00 +13°C° 0.3 mm 3 mps 745 mmHg 63%
    11:00 +13°C° 0.5 mm 3 mps 745 mmHg 62%
    12:00 +14°C° 0.5 mm 3 mps 745 mmHg 61%
    13:00 +14°C° 0.5 mm 4 mps 745 mmHg 60%
    14:00 +13°C° 0.3 mm 4 mps 745 mmHg 62%
    15:00 +13°C° 0.3 mm 4 mps 745 mmHg 64%
    16:00 +12°C° 0.3 mm 4 mps 745 mmHg 66%
    17:00 +11°C° 0.1 mm 4 mps 745 mmHg 69%
    18:00 +10°C° 0.1 mm 3 mps 746 mmHg 73%
    19:00 +9°C° 0.1 mm 3 mps 746 mmHg 77%
    20:00 +9°C° 0 mm 3 mps 747 mmHg 78%
    21:00 +8°C° 0 mm 3 mps 747 mmHg 79%
    22:00 +8°C° 0 mm 3 mps 748 mmHg 80%
    23:00 +7°C° 0 mm 3 mps 748 mmHg 81%

    28 March, Tuesday

    Time Temperature Precipitation Wind Pressure Humidity
    00:00 +7°C° 0 mm 3 mps 748 mmHg 81%
    01:00 +7°C° 0 mm 3 mps 748 mmHg 81%
    02:00 +7°C° 0 mm 3 mps 749 mmHg 81%
    03:00 +5°C° 0 mm 3 mps 749 mmHg 81%
    04:00 +5°C° 0 mm 3 mps 749 mmHg 81%
    05:00 +7°C° 0 mm 3 mps 749 mmHg 78%
    06:00 +7°C° 0 mm 3 mps 750 mmHg 75%
    07:00 +8°C° 0 mm 3 mps 750 mmHg 72%
    08:00 +10°C° 0 mm 3 mps 750 mmHg 64%
    09:00 +12°C° 0 mm 3 mps 750 mmHg 55%
    10:00 +14°C° 0 mm 3 mps 751 mmHg 47%
    11:00 +16°C° 0 mm 3 mps 750 mmHg 44%
    12:00 +17°C° 0 mm 3 mps 750 mmHg 41%
    13:00 +18°C° 0 mm 3 mps 750 mmHg 37%
    14:00 +18°C° 0 mm 3 mps 750 mmHg 39%
    15:00 +18°C° 0 mm 3 mps 750 mmHg 40%
    16:00 +18°C° 0 mm 3 mps 749 mmHg 41%
    17:00 +14°C° 0 mm 3 mps 750 mmHg 50%
    18:00 +12°C° 0 mm 3 mps 750 mmHg 58%
    19:00 +10°C° 0 mm 3 mps 750 mmHg 67%
    20:00 +9°C° 0 mm 3 mps 751 mmHg 67%
    21:00 +9°C° 0 mm 2 mps 751 mmHg 67%
    22:00 +9°C° 0 mm 2 mps 751 mmHg 67%
    23:00 +8°C° 0 mm 2 mps 751 mmHg 67%

    29 March, Wednesday

    Time Temperature Precipitation Wind Pressure Humidity
    00:00 +8°C° 0 mm 2 mps 751 mmHg 67%
    01:00 +8°C° 0 mm 2 mps 751 mmHg 67%
    02:00 +8°C° 0 mm 2 mps 751 mmHg 67%
    03:00 +7°C° 0 mm 2 mps 751 mmHg 67%
    04:00 +7°C° 0 mm 2 mps 751 mmHg 67%
    05:00 +8°C° 0 mm 2 mps 751 mmHg 65%
    06:00 +9°C° 0 mm 2 mps 751 mmHg 62%
    07:00 +12°C° 0 mm 2 mps 751 mmHg 59%
    08:00 +14°C° 0 mm 2 mps 751 mmHg 52%
    09:00 +16°C° 0 mm 2 mps 751 mmHg 44%
    10:00 +20°C° 0 mm 1 mps 751 mmHg 36%
    11:00 +20°C° 0 mm 2 mps 751 mmHg 35%
    12:00 +21°C° 0 mm 2 mps 751 mmHg 33%
    13:00 +21°C° 0 mm 3 mps 750 mmHg 31%
    14:00 +21°C° 0 mm 3 mps 750 mmHg 34%
    15:00 +20°C° 0 mm 3 mps 750 mmHg 37%
    16:00 +20°C° 0 mm 3 mps 750 mmHg 40%
    17:00 +17°C° 0 mm 3 mps 750 mmHg 49%
    18:00 +15°C° 0 mm 2 mps 750 mmHg 59%
    19:00 +12°C° 0 mm 2 mps 750 mmHg 69%
    20:00 +12°C° 0 mm 2 mps 750 mmHg 69%
    21:00 +10°C° 0 mm 2 mps 750 mmHg 69%
    22:00 +10°C° 0 mm 2 mps 750 mmHg 69%
    23:00 +10°C° 0 mm 2 mps 750 mmHg 68%

    30 March, Thursday

    Time Temperature Precipitation Wind Pressure Humidity
    00:00 +9°C° 0 mm 2 mps 750 mmHg 66%
    01:00 +9°C° 0 mm 2 mps 750 mmHg 65%
    02:00 +9°C° 0 mm 2 mps 750 mmHg 65%
    03:00 +9°C° 0 mm 2 mps 749 mmHg 64%
    04:00 +9°C° 0 mm 2 mps 749 mmHg 64%
    05:00 +10°C° 0 mm 2 mps 750 mmHg 61%
    06:00 +12°C° 0 mm 2 mps 750 mmHg 58%
    07:00 +14°C° 0 mm 2 mps 750 mmHg 55%
    08:00 +16°C° 0 mm 1 mps 750 mmHg 48%
    09:00 +19°C° 0 mm 1 mps 750 mmHg 42%
    10:00 +22°C° 0 mm 1 mps 750 mmHg 35%
    11:00 +21°C° 0 mm 2 mps 749 mmHg 34%
    12:00 +23°C° 0 mm 2 mps 749 mmHg 33%
    13:00 +24°C° 0 mm 3 mps 749 mmHg 32%
    14:00 +22°C° 0 mm 3 mps 748 mmHg 35%
    15:00 +22°C° 0 mm 3 mps 748 mmHg 38%
    16:00 +21°C° 0 mm 3 mps 748 mmHg 41%
    17:00 +18°C° 0 mm 3 mps 748 mmHg 51%
    18:00 +16°C° 0 mm 2 mps 748 mmHg 61%
    19:00 +13°C° 0 mm 2 mps 748 mmHg 71%
    20:00 +13°C° 0 mm 2 mps 749 mmHg 70%
    21:00 +13°C° 0 mm 2 mps 749 mmHg 70%
    22:00 +12°C° 0 mm 2 mps 749 mmHg 69%
    23:00 +12°C° 0 mm 2 mps 749 mmHg 68%
    Show more